QPF
0.00 0.00 0.00 0.00 0.00 0.00 0.00 0.00 0.00 0.00 0.00 0.00 0.00 0.00 0.00 0.01 0.01 0.02 0.02 0.04 0.04 0.07 0.07 0.08 0.08 0.13 0.19 0.20 0.27 0.31 0.26 0.20 0.17 0.14 0.12 0.10 0.08 0.09 0.08 0.06 0.05 0.05 0.04 0.03
0.00 0.00 0.00 0.00 0.00 0.00 0.00 0.00 0.00 0.00 0.00 0.00 0.00 0.00 0.00 0.01 0.02 0.03 0.04 0.06 0.04 0.04 0.05 0.07 0.09 0.13 0.18 0.22 0.32 0.38 0.40 0.32 0.27 0.21 0.18 0.17 0.14 0.12 0.10 0.08 0.07 0.04 0.03 0.02
0.00 0.00 0.00 0.00 0.00 0.00 0.00 0.00 0.00 0.00 0.00 0.00 0.00 0.00 0.01 0.01 0.02 0.03 0.02 0.02 0.02 0.03 0.03 0.07 0.12 0.17 0.22 0.24 0.30 0.35 0.37 0.38 0.37 0.33 0.28 0.24 0.19 0.15 0.10 0.07 0.06 0.04 0.02 0.01
0.00 0.00 0.00 0.00 0.00 0.00 0.00 0.00 0.00 0.00 0.00 0.00 0.00 0.00 0.01 0.01 0.02 0.02 0.01 0.01 0.01 0.02 0.03 0.05 0.11 0.16 0.21 0.19 0.23 0.25 0.29 0.33 0.37 0.38 0.33 0.25 0.19 0.13 0.09 0.06 0.05 0.04 0.02 0.02
0.00 0.00 0.00 0.00 0.00 0.00 0.00 0.00 0.00 0.00 0.00 0.00 0.00 0.00 0.00 0.01 0.02 0.01 0.01 0.01 0.01 0.01 0.01 0.02 0.04 0.07 0.12 0.13 0.16 0.16 0.20 0.24 0.26 0.32 0.38 0.30 0.22 0.16 0.12 0.09 0.07 0.05 0.03 0.02
0.00 0.00 0.00 0.00 0.00 0.00 0.00 0.00 0.00 0.00 0.00 0.00 0.00 0.00 0.00 0.01 0.01 0.00 0.01 0.01 0.00 0.00 0.00 0.01 0.02 0.05 0.08 0.08 0.09 0.10 0.14 0.18 0.18 0.20 0.24 0.28 0.23 0.17 0.13 0.09 0.06 0.06 0.06 0.04
0.00 0.00 0.00 0.00 0.00 0.00 0.00 0.00 0.00 0.00 0.00 0.00 0.00 0.00 0.00 0.00 0.00 0.00 0.00 0.00 0.00 0.00 0.00 0.01 0.01 0.03 0.05 0.05 0.05 0.07 0.12 0.19 0.17 0.13 0.12 0.16 0.15 0.11 0.09 0.09 0.07 0.05 0.04 0.03
0.00 0.00 0.00 0.00 0.00 0.00 0.00 0.00 0.00 0.00 0.00 0.00 0.00 0.00 0.00 0.00 0.00 0.00 0.00 0.00 0.00 0.00 0.00 0.00 0.01 0.01 0.02 0.04 0.05 0.03 0.06 0.13 0.19 0.16 0.11 0.10 0.10 0.09 0.06 0.05 0.05 0.05 0.04 0.03
0.00 0.00 0.00 0.00 0.00 0.00 0.00 0.00 0.00 0.00 0.00 0.00 0.00 0.00 0.00 0.00 0.00 0.00 0.00 0.00 0.00 0.00 0.00 0.00 0.01 0.01 0.01 0.03 0.05 0.03 0.03 0.05 0.11 0.15 0.14 0.10 0.08 0.06 0.05 0.03 0.02 0.03 0.02 0.03
0.00 0.00 0.00 0.00 0.00 0.00 0.00 0.00 0.01 0.00 0.00 0.00 0.00 0.00 0.00 0.00 0.00 0.00 0.00 0.00 0.00 0.01 0.01 0.00 0.00 0.01 0.00 0.01 0.04 0.04 0.03 0.03 0.06 0.12 0.12 0.11 0.08 0.05 0.04 0.04 0.03 0.02 0.02 0.02
0.00 0.00 0.00 0.00 0.00 0.00 0.00 0.00 0.00 0.00 0.01 0.01 0.00 0.00 0.00 0.00 0.00 0.00 0.01 0.01 0.01 0.01 0.01 0.00 0.00 0.00 0.00 0.01 0.03 0.04 0.04 0.03 0.04 0.08 0.10 0.10 0.08 0.07 0.06 0.04 0.04 0.03 0.02 0.01
0.00 0.00 0.00 0.00 0.00 0.00 0.00 0.00 0.00 0.01 0.01 0.01 0.00 0.00 0.00 0.00 0.00 0.00 0.01 0.01 0.01 0.01 0.01 0.00 0.00 0.00 0.00 0.00 0.02 0.05 0.04 0.04 0.05 0.08 0.10 0.08 0.07 0.08 0.07 0.05 0.04 0.04 0.03 0.01
0.00 0.00 0.00 0.00 0.00 0.00 0.00 0.01 0.01 0.01 0.01 0.01 0.00 0.00 0.00 0.00 0.00 0.01 0.01 0.01 0.01 0.01 0.01 0.01 0.00 0.00 0.00 0.00 0.00 0.02 0.03 0.03 0.05 0.08 0.10 0.08 0.08 0.08 0.07 0.05 0.05 0.03 0.03 0.02
0.00 0.00 0.01 0.00 0.00 0.00 0.00 0.01 0.01 0.01 0.00 0.00 0.00 0.00 0.00 0.00 0.00 0.01 0.01 0.00 0.01 0.01 0.01 0.01 0.01 0.01 0.01 0.01 0.00 0.00 0.01 0.02 0.04 0.06 0.07 0.06 0.07 0.07 0.05 0.05 0.03 0.03 0.03 0.03
0.00 0.01 0.01 0.01 0.00 0.00 0.00 0.01 0.01 0.01 0.01 0.01 0.01 0.00 0.00 0.00 0.01 0.01 0.01 0.00 0.00 0.01 0.01 0.01 0.01 0.01 0.01 0.01 0.01 0.00 0.01 0.01 0.03 0.04 0.05 0.05 0.06 0.06 0.04 0.03 0.03 0.03 0.04 0.04
0.00 0.01 0.02 0.02 0.01 0.01 0.01 0.01 0.01 0.01 0.01 0.01 0.01 0.00 0.01 0.01 0.01 0.01 0.00 0.00 0.00 0.01 0.02 0.02 0.01 0.02 0.02 0.02 0.01 0.01 0.01 0.02 0.03 0.03 0.02 0.02 0.02 0.03 0.02 0.03 0.04 0.05 0.06 0.06
0.00 0.00 0.01 0.01 0.02 0.01 0.01 0.01 0.01 0.01 0.01 0.01 0.01 0.01 0.01 0.01 0.01 0.01 0.01 0.01 0.01 0.02 0.03 0.03 0.02 0.02 0.03 0.03 0.03 0.03 0.03 0.02 0.02 0.03 0.03 0.04 0.05 0.04 0.03 0.05 0.06 0.07 0.07 0.07
0.00 0.00 0.00 0.01 0.02 0.03 0.02 0.02 0.01 0.01 0.01 0.02 0.03 0.04 0.02 0.01 0.01 0.02 0.02 0.02 0.02 0.03 0.03 0.04 0.03 0.04 0.04 0.05 0.06 0.06 0.05 0.04 0.05 0.05 0.05 0.06 0.07 0.07 0.08 0.09 0.09 0.09 0.10 0.10
0.01 0.01 0.01 0.01 0.02 0.03 0.03 0.03 0.02 0.01 0.01 0.03 0.04 0.05 0.04 0.02 0.01 0.03 0.03 0.03 0.03 0.03 0.04 0.05 0.06 0.06 0.06 0.06 0.06 0.06 0.05 0.05 0.05 0.05 0.06 0.07 0.09 0.11 0.12 0.11 0.11 0.14 0.15 0.15
0.01 0.03 0.04 0.04 0.03 0.03 0.03 0.02 0.02 0.03 0.03 0.03 0.02 0.03 0.03 0.02 0.02 0.03 0.04 0.05 0.04 0.04 0.05 0.05 0.06 0.06 0.06 0.06 0.06 0.07 0.07 0.08 0.09 0.09 0.10 0.11 0.13 0.16 0.18 0.19 0.19 0.18 0.16 0.14
0.04 0.04 0.04 0.05 0.04 0.04 0.03 0.03 0.04 0.06 0.05 0.04 0.04 0.04 0.04 0.05 0.05 0.05 0.05 0.06 0.07 0.08 0.06 0.05 0.05 0.04 0.04 0.05 0.06 0.08 0.09 0.10 0.12 0.13 0.16 0.17 0.18 0.22 0.23 0.22 0.20 0.18 0.16 0.15
0.06 0.06 0.06 0.05 0.05 0.05 0.05 0.07 0.09 0.08 0.07 0.07 0.07 0.08 0.07 0.07 0.08 0.09 0.08 0.07 0.07 0.08 0.06 0.04 0.04 0.04 0.04 0.05 0.06 0.08 0.09 0.11 0.12 0.12 0.14 0.15 0.16 0.18 0.21 0.22 0.22 0.21 0.20 0.18
0.07 0.10 0.09 0.05 0.06 0.07 0.08 0.12 0.13 0.10 0.09 0.08 0.09 0.10 0.09 0.08 0.08 0.09 0.09 0.06 0.05 0.05 0.05 0.04 0.03 0.03 0.04 0.04 0.05 0.06 0.06 0.08 0.09 0.09 0.09 0.09 0.08 0.09 0.12 0.13 0.12 0.13 0.15 0.19
0.08 0.10 0.10 0.10 0.10 0.09 0.08 0.09 0.08 0.08 0.09 0.09 0.10 0.12 0.12 0.12 0.10 0.08 0.06 0.04 0.03 0.02 0.03 0.03 0.03 0.04 0.04 0.04 0.05 0.05 0.05 0.05 0.05 0.06 0.06 0.05 0.04 0.03 0.04 0.05 0.08 0.13 0.17 0.21
0.09 0.09 0.09 0.12 0.11 0.10 0.09 0.08 0.09 0.10 0.12 0.15 0.16 0.15 0.15 0.14 0.11 0.08 0.06 0.05 0.04 0.02 0.02 0.02 0.02 0.02 0.02 0.02 0.03 0.04 0.04 0.04 0.04 0.05 0.06 0.05 0.04 0.02 0.02 0.03 0.05 0.09 0.11 0.11
0.08 0.08 0.08 0.08 0.08 0.08 0.08 0.10 0.10 0.11 0.13 0.17 0.22 0.22 0.17 0.13 0.10 0.08 0.07 0.06 0.04 0.02 0.02 0.01 0.01 0.01 0.01 0.02 0.02 0.02 0.03 0.03 0.03 0.03 0.04 0.03 0.03 0.03 0.03 0.03 0.03 0.04 0.04 0.04
MSLP
1010.68 1011.35 1011.82 1012.11 1012.24 1012.27 1012.22 1012.12 1011.95 1011.68 1011.30 1010.76 1010.10 1009.33 1008.54 1007.81 1007.23 1006.87 1006.78 1006.95 1007.33 1007.87 1008.46 1009.04 1009.54 1009.93 1010.24 1010.51 1010.77 1011.09 1011.51 1012.03 1012.63 1013.27 1013.91 1014.49 1015.00 1015.42 1015.76 1016.05 1016.34 1016.65 1017.01 1017.41
1011.03 1011.55 1011.87 1012.03 1012.10 1012.14 1012.17 1012.20 1012.20 1012.11 1011.88 1011.46 1010.84 1010.07 1009.23 1008.41 1007.74 1007.29 1007.13 1007.24 1007.58 1008.07 1008.60 1009.09 1009.48 1009.75 1009.92 1010.06 1010.24 1010.53 1010.97 1011.56 1012.28 1013.06 1013.84 1014.54 1015.13 1015.58 1015.91 1016.16 1016.39 1016.65 1016.97 1017.37
1011.03 1011.39 1011.56 1011.63 1011.66 1011.74 1011.89 1012.10 1012.32 1012.44 1012.39 1012.11 1011.57 1010.81 1009.93 1009.03 1008.26 1007.72 1007.47 1007.51 1007.78 1008.20 1008.66 1009.06 1009.34 1009.49 1009.54 1009.58 1009.69 1009.95 1010.42 1011.09 1011.93 1012.85 1013.76 1014.58 1015.25 1015.74 1016.07 1016.29 1016.47 1016.68 1016.97 1017.35
1010.72 1010.91 1010.95 1010.95 1010.99 1011.15 1011.47 1011.90 1012.35 1012.71 1012.86 1012.73 1012.27 1011.53 1010.60 1009.62 1008.75 1008.10 1007.74 1007.69 1007.89 1008.24 1008.63 1008.96 1009.15 1009.21 1009.18 1009.14 1009.20 1009.44 1009.93 1010.67 1011.60 1012.63 1013.66 1014.59 1015.34 1015.87 1016.21 1016.42 1016.57 1016.73 1016.98 1017.34
1010.22 1010.26 1010.19 1010.15 1010.23 1010.52 1011.02 1011.68 1012.38 1012.97 1013.32 1013.31 1012.92 1012.18 1011.20 1010.13 1009.14 1008.37 1007.91 1007.77 1007.89 1008.19 1008.53 1008.82 1008.97 1008.98 1008.90 1008.82 1008.84 1009.07 1009.57 1010.34 1011.32 1012.43 1013.53 1014.54 1015.35 1015.93 1016.29 1016.50 1016.63 1016.78 1017.01 1017.35
1009.69 1009.59 1009.45 1009.39 1009.55 1009.97 1010.66 1011.54 1012.47 1013.26 1013.77 1013.86 1013.51 1012.75 1011.70 1010.52 1009.41 1008.52 1007.95 1007.73 1007.80 1008.06 1008.40 1008.68 1008.84 1008.85 1008.77 1008.68 1008.69 1008.90 1009.38 1010.14 1011.13 1012.25 1013.39 1014.43 1015.28 1015.89 1016.29 1016.51 1016.65 1016.80 1017.02 1017.35
1009.26 1009.06 1008.87 1008.84 1009.07 1009.63 1010.49 1011.55 1012.65 1013.59 1014.20 1014.34 1013.99 1013.18 1012.05 1010.76 1009.54 1008.54 1007.88 1007.59 1007.63 1007.90 1008.26 1008.59 1008.80 1008.87 1008.83 1008.76 1008.76 1008.95 1009.40 1010.11 1011.05 1012.13 1013.24 1014.27 1015.13 1015.76 1016.18 1016.44 1016.61 1016.77 1017.00 1017.33
1009.03 1008.76 1008.56 1008.56 1008.87 1009.53 1010.51 1011.69 1012.89 1013.91 1014.55 1014.70 1014.31 1013.43 1012.21 1010.82 1009.50 1008.42 1007.70 1007.38 1007.42 1007.72 1008.15 1008.56 1008.87 1009.04 1009.07 1009.04 1009.06 1009.23 1009.61 1010.24 1011.09 1012.08 1013.12 1014.09 1014.92 1015.56 1016.00 1016.29 1016.50 1016.70 1016.95 1017.29
1008.99 1008.70 1008.51 1008.55 1008.92 1009.65 1010.69 1011.91 1013.13 1014.13 1014.75 1014.84 1014.39 1013.45 1012.15 1010.70 1009.32 1008.19 1007.44 1007.12 1007.20 1007.56 1008.08 1008.60 1009.04 1009.31 1009.45 1009.49 1009.54 1009.68 1010.00 1010.52 1011.25 1012.11 1013.03 1013.91 1014.69 1015.31 1015.76 1016.08 1016.33 1016.57 1016.85 1017.20
1009.11 1008.83 1008.67 1008.75 1009.15 1009.89 1010.92 1012.10 1013.25 1014.18 1014.71 1014.72 1014.19 1013.19 1011.86 1010.38 1008.99 1007.87 1007.14 1006.86 1006.98 1007.42 1008.03 1008.68 1009.23 1009.64 1009.88 1010.00 1010.09 1010.22 1010.47 1010.90 1011.49 1012.21 1012.99 1013.77 1014.46 1015.04 1015.49 1015.84 1016.12 1016.39 1016.70 1017.07
1009.26 1009.04 1008.93 1009.04 1009.44 1010.14 1011.09 1012.16 1013.18 1013.97 1014.37 1014.28 1013.69 1012.66 1011.34 1009.90 1008.56 1007.50 1006.83 1006.60 1006.79 1007.29 1007.98 1008.72 1009.39 1009.91 1010.25 1010.46 1010.60 1010.73 1010.95 1011.29 1011.76 1012.34 1012.99 1013.65 1014.27 1014.79 1015.22 1015.58 1015.88 1016.18 1016.50 1016.87
1009.39 1009.24 1009.18 1009.32 1009.69 1010.32 1011.13 1012.03 1012.87 1013.48 1013.73 1013.54 1012.91 1011.90 1010.64 1009.29 1008.06 1007.11 1006.53 1006.37 1006.60 1007.15 1007.89 1008.69 1009.42 1010.02 1010.46 1010.75 1010.95 1011.11 1011.31 1011.60 1011.99 1012.47 1013.01 1013.56 1014.09 1014.56 1014.96 1015.31 1015.62 1015.92 1016.25 1016.62
1009.45 1009.39 1009.40 1009.55 1009.87 1010.38 1011.03 1011.72 1012.34 1012.74 1012.84 1012.57 1011.93 1010.97 1009.82 1008.62 1007.54 1006.72 1006.24 1006.15 1006.42 1006.97 1007.71 1008.51 1009.27 1009.91 1010.41 1010.78 1011.04 1011.26 1011.49 1011.76 1012.11 1012.52 1012.98 1013.46 1013.91 1014.33 1014.70 1015.03 1015.33 1015.64 1015.96 1016.31
1009.49 1009.52 1009.59 1009.74 1009.99 1010.37 1010.82 1011.28 1011.66 1011.86 1011.81 1011.47 1010.83 1009.97 1008.96 1007.94 1007.03 1006.36 1005.98 1005.94 1006.21 1006.73 1007.41 1008.16 1008.89 1009.53 1010.07 1010.49 1010.83 1011.12 1011.40 1011.71 1012.06 1012.46 1012.87 1013.30 1013.70 1014.07 1014.41 1014.71 1015.00 1015.30 1015.60 1015.94
1009.58 1009.71 1009.82 1009.95 1010.12 1010.34 1010.58 1010.80 1010.94 1010.94 1010.75 1010.34 1009.74 1008.97 1008.12 1007.29 1006.57 1006.03 1005.75 1005.74 1005.97 1006.41 1007.00 1007.65 1008.30 1008.90 1009.44 1009.90 1010.31 1010.68 1011.05 1011.42 1011.82 1012.23 1012.64 1013.04 1013.41 1013.75 1014.06 1014.34 1014.61 1014.89 1015.18 1015.49
1009.83 1010.02 1010.15 1010.25 1010.32 1010.37 1010.40 1010.38 1010.28 1010.08 1009.76 1009.30 1008.72 1008.06 1007.37 1006.72 1006.16 1005.76 1005.55 1005.54 1005.71 1006.05 1006.49 1007.01 1007.55 1008.08 1008.59 1009.08 1009.54 1010.00 1010.46 1010.92 1011.38 1011.83 1012.26 1012.66 1013.02 1013.33 1013.62 1013.88 1014.14 1014.40 1014.68 1014.97
1010.28 1010.50 1010.64 1010.68 1010.63 1010.51 1010.32 1010.07 1009.75 1009.36 1008.91 1008.40 1007.85 1007.29 1006.73 1006.24 1005.83 1005.54 1005.38 1005.35 1005.45 1005.67 1005.97 1006.33 1006.75 1007.19 1007.66 1008.14 1008.65 1009.18 1009.72 1010.27 1010.79 1011.30 1011.75 1012.16 1012.51 1012.82 1013.09 1013.34 1013.58 1013.83 1014.10 1014.38
1010.92 1011.14 1011.24 1011.20 1011.03 1010.73 1010.34 1009.88 1009.36 1008.80 1008.24 1007.68 1007.15 1006.66 1006.22 1005.86 1005.57 1005.37 1005.25 1005.20 1005.23 1005.33 1005.50 1005.73 1006.01 1006.36 1006.77 1007.25 1007.78 1008.36 1008.96 1009.57 1010.15 1010.69 1011.17 1011.59 1011.94 1012.23 1012.48 1012.72 1012.95 1013.20 1013.46 1013.73
1011.66 1011.84 1011.86 1011.72 1011.41 1010.96 1010.39 1009.74 1009.05 1008.36 1007.70 1007.11 1006.59 1006.17 1005.83 1005.57 1005.39 1005.26 1005.18 1005.13 1005.11 1005.13 1005.18 1005.30 1005.48 1005.75 1006.10 1006.55 1007.09 1007.68 1008.32 1008.95 1009.56 1010.12 1010.61 1011.01 1011.35 1011.62 1011.86 1012.08 1012.31 1012.54 1012.80 1013.07
1012.33 1012.43 1012.35 1012.09 1011.66 1011.06 1010.35 1009.56 1008.75 1007.96 1007.25 1006.64 1006.15 1005.79 1005.54 1005.38 1005.29 1005.24 1005.20 1005.17 1005.13 1005.10 1005.10 1005.14 1005.25 1005.45 1005.76 1006.18 1006.69 1007.28 1007.91 1008.54 1009.14 1009.68 1010.15 1010.53 1010.84 1011.09 1011.30 1011.50 1011.71 1011.94 1012.19 1012.46
1012.78 1012.76 1012.57 1012.19 1011.64 1010.94 1010.13 1009.25 1008.38 1007.56 1006.84 1006.25 1005.80 1005.51 1005.34 1005.28 1005.27 1005.30 1005.33 1005.34 1005.33 1005.30 1005.28 1005.29 1005.37 1005.54 1005.81 1006.19 1006.67 1007.22 1007.81 1008.40 1008.96 1009.46 1009.88 1010.22 1010.49 1010.70 1010.88 1011.06 1011.25 1011.47 1011.70 1011.96
1012.88 1012.73 1012.41 1011.92 1011.28 1010.51 1009.66 1008.77 1007.90 1007.10 1006.42 1005.89 1005.52 1005.31 1005.24 1005.27 1005.36 1005.48 1005.59 1005.67 1005.72 1005.73 1005.74 1005.77 1005.85 1006.01 1006.26 1006.60 1007.04 1007.53 1008.06 1008.59 1009.08 1009.51 1009.87 1010.15 1010.36 1010.54 1010.68 1010.83 1010.99 1011.17 1011.39 1011.62
1012.56 1012.27 1011.84 1011.27 1010.57 1009.79 1008.95 1008.11 1007.31 1006.60 1006.02 1005.59 1005.33 1005.22 1005.25 1005.38 1005.57 1005.78 1005.99 1006.16 1006.28 1006.38 1006.45 1006.53 1006.64 1006.80 1007.04 1007.36 1007.74 1008.17 1008.62 1009.06 1009.47 1009.83 1010.11 1010.33 1010.49 1010.62 1010.72 1010.83 1010.96 1011.11 1011.28 1011.48
1011.86 1011.44 1010.92 1010.30 1009.60 1008.85 1008.09 1007.36 1006.69 1006.12 1005.68 1005.39 1005.25 1005.26 1005.40 1005.62 1005.91 1006.22 1006.51 1006.78 1007.00 1007.18 1007.33 1007.48 1007.63 1007.82 1008.06 1008.34 1008.67 1009.03 1009.40 1009.76 1010.09 1010.36 1010.58 1010.74 1010.85 1010.93 1011.00 1011.07 1011.15 1011.25 1011.38 1011.53
1010.90 1010.38 1009.80 1009.16 1008.50 1007.84 1007.20 1006.62 1006.13 1005.74 1005.47 1005.34 1005.34 1005.47 1005.70 1006.02 1006.38 1006.77 1007.15 1007.50 1007.81 1008.08 1008.32 1008.53 1008.73 1008.94 1009.18 1009.43 1009.72 1010.01 1010.30 1010.58 1010.82 1011.03 1011.19 1011.30 1011.37 1011.42 1011.44 1011.47 1011.51 1011.57 1011.64 1011.73
1009.84 1009.26 1008.65 1008.05 1007.46 1006.93 1006.45 1006.05 1005.75 1005.55 1005.46 1005.49 1005.62 1005.86 1006.18 1006.56 1006.99 1007.44 1007.87 1008.29 1008.67 1009.01 1009.31 1009.58 1009.82 1010.05 1010.28 1010.51 1010.74 1010.96 1011.18 1011.39 1011.57 1011.71 1011.82 1011.90 1011.94 1011.96 1011.97 1011.96 1011.96 1011.97 1011.98 1012.01
Thickness
5769 5755 5746 5751 5756 5758 5756 5751 5747 5760 5778 5773 5767 5766 5769 5773 5771 5767 5763 5760 5757 5755 5754 5750 5747 5744 5739 5736 5734 5732 5732 5732 5732 5730 5728 5728 5728 5730 5730 5732 5732 5731 5731 5730
5751 5746 5759 5765 5764 5759 5753 5747 5748 5762 5775 5770 5761 5762 5769 5769 5768 5767 5763 5759 5756 5753 5749 5747 5744 5741 5737 5733 5732 5730 5729 5728 5729 5730 5729 5728 5729 5728 5729 5729 5729 5729 5729 5729
5745 5756 5768 5762 5758 5753 5752 5747 5751 5754 5765 5764 5758 5754 5760 5765 5766 5765 5763 5760 5756 5753 5748 5745 5742 5739 5736 5732 5730 5730 5727 5726 5727 5727 5726 5725 5725 5725 5724 5725 5727 5727 5728 5728
5748 5761 5763 5758 5755 5756 5744 5762 5761 5758 5747 5736 5744 5727 5749 5756 5756 5759 5759 5757 5755 5753 5750 5745 5742 5738 5736 5735 5733 5730 5727 5726 5727 5727 5726 5725 5723 5722 5724 5725 5726 5726 5727 5727
5746 5758 5757 5753 5760 5763 5757 5767 5761 5753 5741 5731 5733 5724 5736 5750 5749 5755 5758 5758 5757 5754 5751 5747 5744 5741 5738 5736 5733 5731 5729 5727 5727 5728 5727 5725 5724 5725 5724 5724 5724 5724 5724 5725
5754 5766 5766 5765 5773 5772 5768 5756 5745 5732 5724 5715 5727 5721 5726 5741 5752 5758 5761 5761 5759 5756 5753 5749 5745 5742 5737 5735 5733 5731 5729 5728 5728 5727 5727 5726 5725 5724 5723 5721 5721 5721 5722 5723
5742 5755 5767 5773 5762 5764 5758 5733 5709 5709 5700 5706 5723 5718 5727 5757 5764 5764 5763 5763 5762 5759 5754 5748 5744 5740 5737 5735 5734 5731 5730 5728 5728 5727 5727 5727 5726 5725 5724 5723 5722 5721 5720 5722
5722 5727 5755 5765 5760 5751 5747 5735 5708 5698 5696 5705 5718 5716 5742 5767 5771 5770 5768 5766 5763 5759 5755 5751 5747 5743 5740 5738 5735 5733 5730 5729 5729 5728 5728 5728 5727 5725 5725 5725 5725 5724 5724 5724
5720 5725 5757 5767 5770 5760 5741 5733 5735 5712 5706 5701 5709 5725 5748 5768 5766 5766 5764 5763 5761 5760 5757 5753 5750 5746 5743 5740 5738 5736 5733 5730 5729 5729 5728 5727 5727 5727 5726 5726 5726 5726 5726 5725
5734 5726 5745 5759 5764 5759 5754 5738 5719 5707 5695 5693 5708 5718 5730 5755 5759 5761 5761 5760 5760 5760 5759 5756 5752 5749 5747 5744 5741 5738 5735 5734 5732 5731 5729 5729 5728 5728 5727 5727 5726 5726 5725 5725
5736 5724 5732 5742 5742 5740 5738 5731 5720 5706 5705 5694 5693 5715 5753 5757 5761 5760 5761 5762 5761 5760 5760 5758 5755 5752 5749 5747 5743 5738 5736 5734 5733 5732 5731 5729 5728 5727 5727 5727 5727 5726 5725 5724
5730 5717 5712 5727 5746 5752 5744 5734 5720 5709 5705 5701 5698 5719 5766 5764 5765 5764 5763 5765 5764 5762 5761 5759 5756 5753 5749 5747 5744 5741 5738 5736 5735 5734 5732 5729 5728 5726 5725 5725 5725 5725 5724 5723
5725 5710 5700 5708 5720 5735 5734 5732 5726 5718 5706 5695 5697 5724 5763 5764 5765 5765 5764 5764 5763 5762 5760 5758 5754 5751 5749 5747 5745 5743 5740 5738 5736 5734 5731 5728 5727 5725 5725 5724 5724 5723 5722 5721
5724 5705 5700 5698 5707 5720 5724 5728 5723 5715 5702 5699 5709 5730 5751 5757 5760 5762 5763 5763 5762 5761 5759 5756 5753 5751 5749 5747 5745 5743 5740 5739 5736 5733 5730 5729 5728 5727 5726 5724 5723 5722 5721 5719
5713 5700 5704 5709 5718 5720 5722 5725 5723 5718 5718 5714 5724 5730 5747 5755 5759 5762 5763 5761 5760 5759 5757 5755 5752 5750 5748 5746 5744 5743 5741 5739 5736 5732 5730 5729 5729 5728 5725 5722 5721 5720 5718 5717
5697 5694 5697 5700 5712 5714 5714 5722 5724 5723 5724 5723 5728 5733 5752 5755 5757 5758 5759 5758 5756 5756 5756 5755 5752 5750 5748 5747 5745 5743 5741 5739 5736 5732 5729 5728 5726 5724 5722 5720 5718 5716 5714 5713
5683 5682 5680 5681 5697 5701 5696 5715 5720 5722 5729 5729 5725 5738 5747 5747 5749 5751 5752 5754 5754 5754 5754 5752 5751 5749 5748 5746 5744 5741 5740 5737 5734 5730 5728 5726 5723 5720 5718 5717 5714 5712 5710 5708
5674 5670 5665 5667 5678 5671 5701 5723 5726 5724 5728 5733 5736 5740 5741 5741 5744 5747 5749 5749 5749 5750 5749 5749 5748 5747 5746 5744 5742 5740 5737 5733 5730 5727 5724 5722 5720 5717 5714 5712 5710 5707 5705 5703
5668 5663 5656 5655 5659 5673 5696 5710 5714 5712 5715 5728 5729 5732 5735 5738 5739 5738 5742 5744 5744 5744 5744 5744 5744 5743 5741 5739 5738 5735 5731 5728 5726 5723 5721 5719 5717 5713 5710 5708 5706 5704 5701 5698
5658 5657 5652 5650 5655 5659 5685 5704 5712 5709 5703 5722 5725 5726 5729 5731 5723 5725 5732 5735 5736 5738 5738 5737 5737 5736 5734 5733 5732 5729 5725 5722 5719 5718 5716 5715 5713 5710 5707 5705 5702 5699 5696 5693
5647 5646 5645 5646 5650 5664 5685 5696 5702 5687 5699 5715 5719 5722 5723 5721 5721 5722 5724 5725 5727 5728 5728 5729 5727 5726 5725 5724 5724 5720 5716 5713 5713 5711 5708 5706 5705 5703 5701 5699 5697 5694 5690 5686
5641 5639 5640 5640 5643 5655 5680 5685 5684 5690 5701 5707 5712 5715 5714 5714 5714 5714 5715 5715 5716 5717 5718 5718 5717 5715 5715 5715 5714 5710 5706 5705 5705 5703 5700 5697 5695 5694 5693 5690 5687 5684 5681 5677
5639 5641 5641 5644 5650 5663 5672 5675 5683 5690 5694 5699 5703 5706 5706 5704 5703 5702 5703 5703 5704 5705 5705 5704 5705 5703 5702 5703 5703 5699 5695 5695 5694 5691 5688 5686 5684 5682 5680 5678 5675 5672 5669 5666
5640 5643 5642 5645 5654 5661 5666 5672 5679 5686 5689 5693 5696 5696 5695 5694 5692 5691 5691 5690 5690 5690 5691 5692 5692 5690 5688 5688 5688 5686 5684 5684 5682 5679 5676 5674 5672 5669 5667 5665 5662 5659 5656 5653
5638 5640 5640 5641 5649 5655 5661 5666 5672 5677 5680 5683 5684 5685 5684 5683 5680 5679 5677 5677 5676 5676 5677 5678 5678 5676 5674 5674 5673 5673 5673 5672 5669 5667 5665 5662 5660 5657 5654 5652 5649 5647 5644 5642
5634 5636 5637 5639 5645 5647 5651 5659 5665 5667 5669 5671 5671 5670 5671 5671 5668 5666 5664 5663 5663 5662 5663 5663 5662 5662 5660 5660 5660 5660 5660 5660 5657 5654 5651 5649 5646 5644 5641 5639 5636 5633 5631 5629